User: anonymous   Login
Location: G�ppingen
(48.7089°N, 9.6563°E)
Time: 04:54:49
(UTC+02:00)
Language:

LilacSat-2 - Orbit

View from above orbital plane
View from above orbital plane
View from above satellite
View from above satellite

Ground track
Ground track

The orbit data is extracted from the following two-line orbital elements,

1 40908U 15049K   19110.69649262  .00000099  00000-0  91046-5 0  9999
2 40908  97.4776 112.3789 0017634  50.5442  37.8593 15.13750904197888
Epoch (UTC): 20 April 2019 16:42:56
Eccentricity: 0.0017634
inclination: 97.4776°
perigee height: 512 km
apogee height: 537 km
right ascension of ascending node: 112.3789°
argument of perigee: 50.5442°
revolutions per day: 15.13750904
mean anomaly at epoch: 37.8593°
orbit number at epoch: 19788

The dashed part of the orbit path shows where the satellite is in the earth's shadow,  

DLR